TimeMST,TemperatureF,Dew PointF,Humidity,Sea Level PressureIn,VisibilityMPH,Wind Direction,Wind SpeedMPH,Gust SpeedMPH,PrecipitationIn,Events,Conditions,WindDirDegrees,DateUTC
12:30 AM,-2.9,-7.1,82,29.81,9.0,WSW,6.9,-,N/A,,Partly Cloudy,250,2014-01-10 07:30:00
12:52 AM,-2.9,-6.0,87,30.04,9.0,WSW,6.9,-,N/A,,Scattered Clouds,240,2014-01-10 07:52:00
1:05 AM,-5.1,-8.0,87,29.79,9.0,Variable,3.5,-,N/A,,Mostly Cloudy,0,2014-01-10 08:05:00
1:29 AM,-2.9,-6.0,87,29.78,1.2,West,4.6,-,N/A,,Overcast,270,2014-01-10 08:29:00
1:37 AM,-2.0,-5.1,87,29.79,0.2,WNW,5.8,-,N/A,Fog,Light Freezing Fog,290,2014-01-10 08:37:00
1:52 AM,-2.9,-6.0,87,30.03,0.8,Calm,Calm,-,N/A,,Mist,0,2014-01-10 08:52:00
2:21 AM,-0.9,-5.1,83,29.81,2.5,NNE,9.2,-,N/A,,Overcast,20,2014-01-10 09:21:00
2:28 AM,-0.0,-2.9,88,29.81,6.0,North,6.9,-,N/A,,Overcast,10,2014-01-10 09:28:00
2:37 AM,1.0,-2.0,87,29.80,1.5,North,5.8,-,N/A,,Overcast,350,2014-01-10 09:37:00
2:52 AM,1.9,-0.0,91,30.03,0.5,NW,5.8,-,N/A,Fog,Light Freezing Fog,320,2014-01-10 09:52:00
3:08 AM,1.9,-0.9,88,29.81,2.0,North,6.9,-,N/A,,Mostly Cloudy,350,2014-01-10 10:08:00
3:14 AM,1.0,-2.9,83,29.81,9.0,NW,3.5,-,N/A,,Mostly Cloudy,320,2014-01-10 10:14:00
3:52 AM,-0.0,-5.1,79,30.05,9.0,East,4.6,-,N/A,,Clear,80,2014-01-10 10:52:00
4:13 AM,-5.1,-9.9,80,29.82,8.0,SSW,6.9,-,N/A,,Scattered Clouds,210,2014-01-10 11:13:00
4:21 AM,-5.1,-8.0,87,29.82,5.0,SW,6.9,-,N/A,,Mostly Cloudy,230,2014-01-10 11:21:00
4:37 AM,-5.1,-8.0,87,29.83,1.8,WSW,5.8,-,N/A,,Overcast,240,2014-01-10 11:37:00
4:49 AM,-5.8,-7.6,92,29.83,0.5,WSW,5.8,-,N/A,Fog,Light Freezing Fog,240,2014-01-10 11:49:00
4:52 AM,-5.1,-7.1,91,30.13,0.2,WSW,3.5,-,N/A,Fog,Light Freezing Fog,240,2014-01-10 11:52:00
5:31 AM,-5.1,-9.0,83,29.84,2.0,WNW,5.8,-,N/A,,Mostly Cloudy,300,2014-01-10 12:31:00
5:38 AM,-5.1,-9.0,83,29.85,7.0,WNW,9.2,-,N/A,,Mostly Cloudy,290,2014-01-10 12:38:00
5:45 AM,-5.1,-9.0,83,29.84,9.0,WNW,9.2,-,N/A,,Scattered Clouds,290,2014-01-10 12:45:00
5:52 AM,-2.9,-8.0,79,30.15,10.0,NNW,6.9,-,N/A,,Partly Cloudy,330,2014-01-10 12:52:00
6:52 AM,-2.9,-8.0,79,30.17,10.0,North,11.5,-,N/A,,Mostly Cloudy,350,2014-01-10 13:52:00
7:52 AM,5.0,-0.0,80,30.12,10.0,North,-9999.0,-,N/A,,Clear,0,2014-01-10 14:52:00
8:52 AM,5.0,1.9,87,30.15,10.0,SW,4.6,-,N/A,,Clear,220,2014-01-10 15:52:00
9:52 AM,12.0,9.0,88,30.11,10.0,South,5.8,-,N/A,,Clear,190,2014-01-10 16:52:00
10:52 AM,19.0,12.0,74,30.08,10.0,SSW,5.8,-,N/A,,Mostly Cloudy,210,2014-01-10 17:52:00
11:52 AM,21.9,12.0,66,30.07,10.0,SE,5.8,-,N/A,,Overcast,130,2014-01-10 18:52:00
12:52 PM,25.0,12.0,58,30.03,10.0,SSE,6.9,-,N/A,,Overcast,150,2014-01-10 19:52:00
1:52 PM,27.0,10.9,51,30.02,10.0,South,5.8,-,N/A,,Partly Cloudy,180,2014-01-10 20:52:00
2:52 PM,27.0,12.0,53,30.00,10.0,Variable,5.8,-,N/A,,Partly Cloudy,0,2014-01-10 21:52:00
3:52 PM,28.9,12.0,49,30.00,10.0,NW,4.6,-,N/A,,Clear,310,2014-01-10 22:52:00
4:52 PM,27.0,9.0,47,30.06,10.0,NW,9.2,-,N/A,,Clear,310,2014-01-10 23:52:00
5:52 PM,17.1,7.0,65,30.14,10.0,Variable,4.6,-,N/A,,Clear,0,2014-01-11 00:52:00
6:52 PM,15.1,7.0,70,30.19,10.0,Variable,6.9,-,N/A,,Clear,0,2014-01-11 01:52:00
7:52 PM,10.9,3.9,73,30.21,10.0,South,5.8,-,N/A,,Clear,170,2014-01-11 02:52:00
8:52 PM,12.9,5.0,71,30.23,10.0,SE,12.7,-,N/A,,Clear,140,2014-01-11 03:52:00
9:52 PM,8.1,1.9,76,30.25,10.0,West,8.1,-,N/A,,Clear,280,2014-01-11 04:52:00
10:52 PM,6.1,1.9,83,30.25,10.0,North,-9999.0,-,N/A,,Clear,0,2014-01-11 05:52:00
11:52 PM,1.9,-4.0,76,30.28,10.0,SSW,9.2,-,N/A,,Clear,200,2014-01-11 06:52:00